Location: Newark
(46.7000°N, 60.6000°W)
Time: 21:54:43
(UTC+00:00)

Vanguard 1 Rocket - Pass Details

Date: 05 November 2020
Orbit: 656 x 4221 km, 34.3° (Epoch: 30 November)

Event Time Altitude Azimuth Distance (km) Brightness Sun altitude
Rises 12:04:29 0° 232° (SW) 5,115 11.1 10.1°
Reaches altitude 10° 12:09:20 10° 219° (SW) 3,500 10.4 10.8°
Maximum altitude 12:15:05 21° 173° (S) 2,100 10.1 11.5°
Drops below altitude 10° 12:19:11 10° 124° (SE) 2,397 12.6 12.1°
Sets 12:21:46 0° 107° (ESE) 3,131 11.5 12.4°
